sat.trackr.live / text

‹ back to catalog

STARLINK-31699

NORAD 59551 · 2024-074T

PAYLOAD ACTIVE UNKNOWN

§ Identity

Operator
Country
US
Launch date
2024-04-18
Launch site
AFETR
Launch vehicle
Mass (kg)
RCS (m²)

Purposes: comms

External: N2YO · Heavens-Above · Gunter

§ Orbital elements

Epoch: 2026-05-25T01:07:50.499264Z

Period
94.27 min
Inclination
43.0000°
Eccentricity
0.0000687
Mean motion
15.27581167 rev/d
Perigee alt
482.6 km
Apogee alt
483.5 km
Semi-major
6,861.2 km
B*
-5.7430e-5
RAAN
272.1703°
Arg perigee
272.1035°
Mean anomaly
87.9738°
Rev number
11,769

§ Raw data

STARLINK-316991 59551U 24074T   26145.04711226 -.00001842  00000+0 -57430-4 0  99922 59551  43.0000 272.1703 0000687 272.1035  87.9738 15.27581167117696

JSON: /api/v1/satellites/59551 · /tle

For live sub-satellite position, see the globe view (requires WebGL).

§ Visibility from observer

Set your observer location to see the next 7 days of passes ≥ 10°. The values pass through the URL so the page stays shareable.

No JS? Fill the form by hand. The geolocation button needs JavaScript.